Weather Roundup
Issued by NWS

Home | Current Version | Previous Version | Text Only | Print | Product List | Glossary On
Versions: 1 2 3 4 5 6 7 8 9 10 11 12 13 14 15 16 17 18 19 20 21 22 23 24 25 26 27 28 29 30 31 32 33 34 35 36 37 38 39 40 41 42 43 44 45 46 47 48 49 50
012
NZUS93 KARX 260910
HRRWXR

CURRENT HOURLY OBSERVATIONS ACROSS
MUCH OF THE UPPER MISSISSIPPI VALLEY
NATIONAL WEATHER SERVICE LA CROSSE WI
400 AM CDT THU APR 26 2018


...SOUTHEAST MINNESOTA...


CITY           SKY/WX    TMP DP  RH WIND       PRES   REMARKS
ROCHESTER      FAIR      39  33  79 S5        29.92S
ROCHESTER/MAYO FAIR      43  32  66 CALM      29.92S
WINONA         FAIR      36  32  87 CALM      29.91S
AUSTIN         FAIR      37  34  87 CALM      29.92S
ALBERT LEA     FAIR      37  36  93 CALM      29.91F
DODGE CENTER   FAIR      37  34  87 S3        29.91S
PRESTON        FAIR      38  31  74 SW5       29.93S WCI  35
OWATONNA       FAIR      39  34  81 CALM      29.92R
FARIBAULT      NOT AVBL
$$

...ELSEWHERE IN MINNESOTA...


CITY           SKY/WX    TMP DP  RH WIND       PRES   REMARKS
MINNEAPOLIS    CLOUDY    46  34  62 S5        29.89F
INTNL FALLS    FAIR      38  29  70 SW3       29.74S
DULUTH         FAIR      43  27  53 SW12      29.81F
RED WING       FAIR      34  27  75 CALM      29.90F
REDWOOD FALLS  CLOUDY    40  33  76 S10       29.85F WCI  33
MANKATO        FAIR      42  34  73 S7        29.90F
WORTHINGTON    CLOUDY    40  31  70 S9        29.90F WCI  34
FAIRMONT       CLOUDY    41  35  79 SW7       29.92S
$$

...SOUTHWEST WISCONSIN...


CITY           SKY/WX    TMP DP  RH WIND       PRES   REMARKS
LA CROSSE      FAIR      41  34  76 SE6       29.92F
PRAIRIE DU CHI FAIR      36  28  72 CALM      29.94S
BOSCOBEL       FAIR      33  29  85 CALM      29.95S
LONE ROCK      FAIR      32  29  88 CALM      29.96S
PLATTEVILLE    FAIR      38  32  78 SE6       29.95F WCI  34
FORT MC COY    FAIR      28  26  93 CALM      29.93F
CAMP DOUGLAS   FAIR      29  28  97 CALM      29.92F
MAUSTON-NEW LI FAIR      32  31  94 CALM      29.92S
VIROQUA        FAIR      46  28  50 SW3       29.93S
WIS DELLS      FAIR      38  30  71 S7        29.93F WCI  33
$$

...ELSEWHERE IN WISCONSIN...


CITY           SKY/WX    TMP DP  RH WIND       PRES   REMARKS
MILWAUKEE      FAIR      38  31  76 CALM      29.96S
MADISON        FAIR      39  31  72 CALM      29.96R
GREEN BAY      FAIR      36  31  82 CALM      29.93S
EAU CLAIRE     FAIR      35  28  75 CALM      29.90S
BLACK RVR FLS  FAIR      26  26 100 CALM      29.92S
MEDFORD        FAIR      33  27  77 S3        29.89S
WAUSAU         FAIR      32  27  81 CALM      29.90S
WIS RAPIDS     FAIR      31  27  85 CALM      29.93S
MARSHFIELD     FAIR      36  29  75 S5        29.90F WCI  32
RICE LAKE      FAIR      32  30  93 CALM      29.90F
$$

...NORTHEAST IOWA...


CITY           SKY/WX    TMP DP  RH WIND       PRES   REMARKS
WATERLOO       FAIR      34  31  88 CALM      29.94S
DUBUQUE        FAIR      39  31  72 S6        29.95R WCI  35
DECORAH        FAIR      39  30  70 W3        29.92S
MASON CITY     CLOUDY    37  35  92 S5        29.94S WCI  33
CHARLES CITY   FAIR      41  39  93 CALM      29.94S
OELWEIN        FAIR      39  34  81 SE3       29.94S
$$

...ELSEWHERE IN IOWA...


CITY           SKY/WX    TMP DP  RH WIND       PRES   REMARKS
DES MOINES     CLOUDY    44  32  62 CALM      29.96S
IOWA CITY      FAIR      38  31  76 CALM      29.95S
FORT DODGE     CLOUDY    36  34  92 SW7       29.95S WCI  30
MARSHALLTOWN   CLOUDY    37  32  82 NW3       29.94S
CEDAR RAPIDS   FAIR      40  29  64 N7        29.93S
$$

...NORTHERN ILLINOIS...


CITY           SKY/WX    TMP DP  RH WIND       PRES   REMARKS
CHICAGO-OHARE  FAIR      37  29  72 W3        29.95F
CHICAGO-MIDWAY FAIR      36  29  75 NW5       29.96S WCI  32
MOLINE         FAIR      36  31  82 E5        29.95F WCI  32
ROCKFORD       FAIR      34  29  82 CALM      29.98F
PEORIA         FAIR      41  31  67 E3        29.96F
$$

NOTE: "FAIR" INDICATES FEW OR NO CLOUDS BELOW 12,000 FEET WITH NO
SIGNIFICANT WEATHER AND/OR OBSTRUCTIONS TO VISIBILITY. WIND
SPEEDS ARE IN MILES-PER-HOUR.




USA.gov is the U.S. government's official web portal to all federal, state and local government web resources and services.